Regional Weather Roundup
Issued by NWS

Home | Current Version | Previous Version | Graphics & Text | Print | Product List | Glossary On
Versions: 1 2 3 4 5 6 7 8 9 10 11 12 13 14 15 16 17 18 19 20 21 22 23 24 25 26 27 28 29 30 31 32 33 34 35 36 37 38 39 40 41 42 43 44 45 46 47 48 49 50
000
ASUS43 KDTX 270210
RWRMI
MICHIGAN HOURLY REGIONAL WEATHER ROUNDUP
NATIONAL WEATHER SERVICE DETROIT/PONTIAC MI
1000 PM EDT THU MAY 26 2016

NOTE: "FAIR" INDICATES FEW OR NO CLOUDS BELOW 12,000 FEET WITH NO
SIGNIFICANT WEATHER AND/OR OBSTRUCTION TO VISIBILITY.

MIZ047>049-052>055-059>063-066>070-074>076-081>083-270300-
SOUTHEAST LOWER MICHIGAN

CITY           SKY/WX    TMP DP  RH WIND       PRES   REMARKS
ADRIAN         PTCLDY    78  64  61 SW13      29.93R
ALMA           PTCLDY    70  66  87 W7        29.90R
ANN ARBOR      CLEAR     74  63  68 SW7       29.92R
BAD AXE        MOCLDY    74  63  68 SW5       29.88R
CARO           CLEAR     74  64  71 CALM      29.88R
DETROIT CITY   PTCLDY    78  63  59 S9        29.90R
DETROIT        MOCLDY    77  66  68 S7        29.92R
FLINT          CLOUDY    78  66  66 NW7       29.89R THUNDER
GROSSE ILE     PTCLDY    70  64  83 S7        29.91R
HILLSDALE      PTCLDY    75  55  49 SW7       29.95R
HOWELL         MOCLDY    77  63  63 SW5       29.91R

CITY           SKY/WX    TMP DP  RH WIND       PRES   REMARKS
JACKSON        CLEAR     75  60  59 SW8       29.93R
LAMBERTVILLE   CLOUDY    79  65  63 SW6       29.93R
LANSING        PTCLDY    76  60  57 SW10      29.91R
LAPEER         FAIR      74  62  64 S6        29.89R
MASON          CLEAR     77  57  50 SW3       29.92R
MONROE         PTCLDY    77  66  70 SW7G18    29.91R
MT. CLEMENS    MOCLDY    72  65  76 S9        29.89R
PONTIAC        MOCLDY    78  64  61 S5        29.90R
PORT HOPE        N/A     67  65  93 S5        29.85R
PORT HURON     CLOUDY    73  64  73 S7        29.90R
TRI CITIES     CLOUDY    74  67  78 W6        29.89R
MIDLAND        CLOUDY    74  65  71 CALM      29.88R
TROY           PTCLDY    81  63  54 S6        29.92R
SAGINAW HB     MOCLDY    70  68  94 CALM      29.88R
$$
MIZ043>046-050>051-056>058-064>065-071>073-077>080-270300-
SOUTHWEST LOWER MICHIGAN

CITY           SKY/WX    TMP DP  RH WIND       PRES   REMARKS
BATTLE CREEK   CLOUDY    72  59  63 S6        29.93R
BENTON HARBOR  CLEAR     69  63  81 CALM      29.91R
BIG RAPIDS     CLEAR     68  63  83 W5        29.90R
COLDWATER      PTCLDY    73  57  57 SW5       29.93R
FREMONT        FAIR      69  64  84 SW3       29.90R
HOLLAND        CLEAR     70  62  76 CALM      29.90R
GRAND RAPIDS   PTCLDY    73  63  70 W8        29.91R
IONIA          FAIR      74  61  63 W7        29.91R
KALAMAZOO      PTCLDY    73  60  63 W6        29.92R
LUDINGTON      CLEAR     68  61  79 SW7       29.90R
MARSHALL       CLEAR     72  59  62 CALM      29.92R
MOUNT PLEASANT MOCLDY    74  62  66 W5        29.89R
MUSKEGON       PTCLDY    69  61  75 S3        29.90R
SOUTH HAVEN    PTCLDY    68  63  84 CALM      29.91R
$$
MIZ016>042-270300-
NORTHERN LOWER MICHIGAN

CITY           SKY/WX    TMP DP  RH WIND       PRES   REMARKS
ALPENA         CLEAR     66  63  90 NE3       29.85R
BEAVER ISLAND  FOG       51  51  99 W5        29.89R VSB 1/2
BELLAIRE       PTCLDY    68  60  76 CALM      29.88R
CADILLAC       CLEAR     67  60  78 SW5       29.91R
CHARLEVOIX     CLEAR     60  59  96 W6        29.90R
FRANKFORT      PTCLDY    60  58  94 CALM      29.89R FOG
GAYLORD        CLEAR     67  61  81 W3        29.89R
GRAYLING       CLEAR     71  59  66 W5        29.90R
HARBOR SPRINGS MOCLDY    55  55  99 CALM      29.88R FOG
HOUGHTON LAKE  PTCLDY    72  60  66 SW7       29.89R
MANISTEE       CLEAR     70  59  68 CALM      29.90R
OSCODA         CLEAR     68  63  83 S3        29.85R
PELLSTON       CLEAR     62  58  86 CALM      29.87R
ROGERS CITY    CLEAR     62  59  92 CALM      29.86R FOG
TRAVERSE CITY  PTCLDY    73  61  65 W6        29.86R
$$
MIZ007>008-015-270300-
EASTERN UPPER MICHIGAN

CITY           SKY/WX    TMP DP  RH WIND       PRES   REMARKS
KINROSS          N/A     63  63 100 W15       29.85R
MACKINAC ISLAN CLOUDY    57  57 100 W10       29.85R FOG
NEWBERRY       CLOUDY    59  58  97 W7        29.87R
S. S. MARIE    CLOUDY    64  62  93 SW5       29.83R
MUNISING         N/A     60  58  92 S3        29.86R
$$
MIZ004>006-011>014-085-270300-
CENTRAL UPPER MICHIGAN

CITY           SKY/WX    TMP DP  RH WIND       PRES   REMARKS
MANISTIQUE     CLOUDY    57  56  97 CALM      29.87R
ESCANABA       PTCLDY    61  57  88 S5        29.87R
MENOMINEE      CLOUDY    61  59  93 CALM      29.88R
SAWYER-GWINN   CLEAR     63  61  94 SW5       29.87R
$$
MIZ001>003-009>011-084-270300-
WESTERN UPPER MICHIGAN

CITY           SKY/WX    TMP DP  RH WIND       PRES   REMARKS
IRON MOUNTAIN  CLOUDY    66  61  84 SE7       29.85R
HOUGHTON       CLEAR     58  55  90 NW7       29.84R
COPPER HARBOR    N/A     45  44  97 N5        29.84R
IRONWOOD       CLEAR     63  63 100 CALM      29.81R
$$

ABBREVIATIONS USED IN REMARKS
   TC - TEMPERATURE IN CELSIUS
  WCI - WIND CHILL INDEX
   HX - HEAT INDEX
  VSB - VISIBILITY





USA.gov is the U.S. government's official web portal to all federal, state and local government web resources and services.